Location: Washington
(38.8950°N, 77.0370°W)
Time: 03:48:19
(UTC-04:00)

IDEFIX/ARIANE 42P - Visible Passes

Search period start: 30 August 2015 00:00
Search period end: 09 September 2015 00:00
Orbit: 785 x 803 km, 98.3° (Epoch: 29 August)

Date Brightness Start Highest point End Pass type
(mag) Time Alt. Az. Time Alt. Az. Time Alt. Az.
30 Aug 5.3 21:17:20 10° SW 21:20:23 15° W 21:23:11 10° WNW visible
31 Aug 4.6 20:47:19 10° SSW 20:51:46 28° W 20:56:09 10° NW visible
01 Sep 3.5 20:18:17 10° S 20:23:19 53° W 20:28:24 10° NNW visible
02 Sep 5.7 21:34:41 10° W 21:35:25 10° W 21:35:45 10° W visible
03 Sep 5.1 21:02:52 10° SW 21:06:43 20° W 21:10:25 10° NW visible
04 Sep 4.1 20:33:23 10° SSW 20:38:11 37° W 20:42:58 10° NNW visible
05 Sep 2.9 20:04:38 10° S 20:09:48 71° WSW 20:15:00 10° NNW visible
06 Sep 5.4 21:18:51 10° WSW 21:21:43 14° W 21:24:18 10° WNW visible
07 Sep 4.7 20:48:41 10° SSW 20:53:05 27° W 20:57:24 10° NW visible
08 Sep 3.5 20:19:36 10° S 20:24:37 50° W 20:29:40 10° NNW visible
